GEFSNE_prec_meanprecacc_258.txt.gz
Total_Precipitation_Accumulation
1.42 1.50 1.58 1.57 1.58 1.64 1.72 1.86 2.01 1.89 1.70 1.47 1.43 1.38 1.35 1.34 1.42 1.24 1.26 1.21 1.15 1.20 1.21 1.25 1.32 1.48 1.54 1.44 1.34 1.27 1.26 1.35 1.47 1.60 1.83 2.08 2.34 2.62
1.29 1.27 1.28 1.27 1.32 1.37 1.48 1.60 1.75 1.84 1.72 1.40 1.35 1.42 1.43 1.32 1.47 1.34 1.30 1.26 1.19 1.39 1.54 1.49 1.46 1.64 1.78 1.74 1.55 1.41 1.35 1.34 1.38 1.43 1.54 1.72 1.96 2.19
1.06 1.06 1.09 1.14 1.23 1.23 1.26 1.41 1.61 1.77 1.80 1.46 1.31 1.38 1.53 1.50 1.50 1.46 1.36 1.31 1.35 1.72 1.92 2.11 1.87 1.77 1.89 1.87 1.77 1.57 1.42 1.37 1.43 1.52 1.61 1.71 1.77 1.86
0.97 1.03 1.03 1.06 1.11 1.18 1.23 1.31 1.46 1.68 1.83 1.72 1.48 1.47 1.53 1.55 1.60 1.59 1.39 1.24 1.28 1.73 2.02 2.33 2.29 2.05 2.06 1.91 1.75 1.58 1.46 1.39 1.42 1.48 1.54 1.59 1.65 1.74
0.91 0.97 1.02 1.14 1.14 1.16 1.23 1.27 1.38 1.50 1.77 1.83 1.63 1.58 1.64 1.69 1.81 1.67 1.50 1.48 1.23 1.47 1.89 2.23 2.39 2.42 2.49 2.34 2.03 1.68 1.46 1.33 1.26 1.29 1.36 1.42 1.43 1.43
0.90 0.95 0.99 1.13 1.21 1.24 1.24 1.27 1.33 1.46 1.64 1.81 1.75 1.70 1.75 1.83 1.88 1.82 1.69 1.55 1.39 1.32 1.76 2.23 2.56 2.59 2.75 2.83 2.53 2.06 1.66 1.40 1.25 1.17 1.11 1.10 1.15 1.15
0.84 0.86 0.91 1.01 1.11 1.10 1.02 1.07 1.23 1.45 1.53 1.71 1.75 1.71 1.71 1.84 1.83 1.63 1.58 1.51 1.35 1.28 1.49 1.89 2.59 2.91 2.94 2.98 2.86 2.34 1.87 1.56 1.33 1.20 1.12 1.05 1.04 1.06
0.81 0.82 0.79 0.78 0.77 0.78 0.83 0.90 1.04 1.31 1.63 1.82 1.79 1.73 1.61 1.60 1.67 1.61 1.62 1.63 1.55 1.26 1.23 1.50 2.10 2.90 3.14 3.07 2.95 2.34 1.78 1.47 1.33 1.22 1.17 1.13 1.10 1.10
0.88 0.86 0.69 0.59 0.69 0.76 0.81 0.85 0.98 1.17 1.48 1.81 1.90 1.68 1.63 1.60 1.66 1.65 1.71 1.76 1.64 1.31 1.33 1.57 1.93 2.62 2.82 2.80 2.68 2.04 1.60 1.35 1.21 1.14 1.12 1.10 1.05 1.07
0.81 0.83 0.84 0.77 0.74 0.81 0.88 0.96 1.09 1.23 1.34 1.45 1.76 1.58 1.38 1.39 1.48 1.54 1.64 1.65 1.55 1.37 1.40 1.68 1.93 2.39 2.39 2.47 2.36 1.86 1.49 1.30 1.15 1.04 1.01 1.02 0.99 1.00
0.72 0.71 0.71 0.73 0.79 0.91 1.05 1.26 1.38 1.49 1.41 1.55 1.72 1.67 1.52 1.43 1.33 1.42 1.65 1.69 1.61 1.46 1.44 1.69 1.86 1.97 2.09 2.19 1.97 1.75 1.47 1.30 1.16 1.06 0.99 0.94 0.90 0.94
0.76 0.74 0.67 0.63 0.74 0.90 1.15 1.44 1.58 1.64 1.50 1.59 1.85 1.90 1.73 1.70 1.67 1.59 1.72 1.77 1.70 1.65 1.44 1.54 1.73 1.74 1.96 1.92 1.76 1.63 1.54 1.53 1.37 1.21 1.10 0.95 0.84 0.81
0.75 0.82 0.79 0.71 0.76 0.97 1.19 1.39 1.55 1.57 1.61 1.69 1.70 1.72 1.79 1.82 1.81 1.75 1.72 1.72 1.70 1.62 1.34 1.46 1.68 1.72 1.82 1.83 1.80 1.77 1.71 1.68 1.54 1.48 1.42 1.25 1.04 0.90
0.79 0.82 0.82 0.77 0.81 1.01 1.18 1.44 1.65 1.72 1.70 1.73 1.58 1.48 1.44 1.47 1.54 1.53 1.50 1.47 1.43 1.37 1.29 1.40 1.69 1.84 1.78 1.68 1.85 1.88 1.90 1.96 1.87 1.77 1.68 1.57 1.39 1.28
0.69 0.76 0.77 0.78 0.92 1.22 1.39 1.56 1.72 1.83 1.86 1.72 1.52 1.41 1.28 1.21 1.21 1.29 1.33 1.32 1.24 1.12 1.07 1.22 1.53 1.70 1.74 1.72 1.87 1.92 2.02 2.19 2.13 2.11 1.96 1.79 1.67 1.52
0.68 0.82 0.91 0.94 1.11 1.41 1.61 1.80 1.84 1.75 1.59 1.53 1.44 1.36 1.22 1.15 1.15 1.10 1.13 1.18 1.19 1.17 1.07 1.10 1.35 1.60 1.72 1.63 1.71 1.84 1.94 2.27 2.25 2.07 1.97 1.97 1.89 1.72
0.63 0.82 1.00 1.11 1.30 1.50 1.66 1.72 1.70 1.59 1.48 1.31 1.24 1.29 1.25 1.16 1.11 1.03 1.01 1.03 1.12 1.17 1.14 1.12 1.18 1.30 1.37 1.42 1.58 1.71 1.84 2.05 2.12 1.95 1.84 1.91 1.96 1.83
0.62 0.83 0.97 1.05 1.23 1.44 1.57 1.53 1.43 1.35 1.27 1.17 1.12 1.09 1.08 1.04 1.02 0.97 0.91 0.91 0.99 0.97 0.94 0.95 1.02 1.12 1.13 1.18 1.38 1.55 1.62 1.78 1.79 1.67 1.55 1.63 1.86 1.88
0.60 0.80 0.94 1.05 1.23 1.35 1.37 1.35 1.31 1.21 1.14 1.11 1.09 1.00 0.94 0.91 0.88 0.85 0.83 0.86 0.83 0.79 0.76 0.75 0.82 0.99 1.13 1.31 1.34 1.37 1.48 1.57 1.54 1.44 1.40 1.48 1.72 1.89
0.57 0.77 0.91 1.00 1.09 1.16 1.23 1.27 1.24 1.15 1.06 1.05 1.11 1.06 0.96 0.88 0.80 0.77 0.76 0.71 0.71 0.70 0.69 0.65 0.62 0.72 0.89 1.03 1.19 1.25 1.23 1.26 1.27 1.32 1.29 1.34 1.50 1.58
0.61 0.74 0.84 0.92 0.94 0.94 1.00 1.06 1.07 1.06 1.01 0.98 0.98 0.99 0.92 0.82 0.72 0.65 0.61 0.50 0.52 0.58 0.60 0.56 0.50 0.49 0.59 0.72 0.90 1.00 1.01 1.09 1.07 1.03 1.02 1.09 1.19 1.21
0.60 0.69 0.77 0.82 0.81 0.78 0.77 0.81 0.86 0.90 0.89 0.86 0.83 0.83 0.80 0.71 0.63 0.58 0.55 0.52 0.52 0.49 0.44 0.41 0.42 0.44 0.51 0.67 0.81 0.87 0.86 0.83 0.86 0.86 0.86 0.88 0.93 1.12
0.55 0.59 0.62 0.66 0.66 0.65 0.63 0.66 0.71 0.76 0.76 0.76 0.74 0.71 0.67 0.64 0.56 0.51 0.48 0.44 0.42 0.40 0.39 0.40 0.39 0.39 0.42 0.49 0.59 0.67 0.70 0.72 0.76 0.80 0.84 0.90 0.90 0.97

GEFSNE_prec_meanprecacc_264.txt.gz
Total_Precipitation_Accumulation
1.43 1.51 1.58 1.57 1.59 1.65 1.73 1.88 2.04 1.95 1.74 1.50 1.47 1.42 1.39 1.36 1.44 1.26 1.27 1.21 1.15 1.21 1.22 1.26 1.33 1.48 1.55 1.45 1.34 1.27 1.27 1.35 1.48 1.62 1.84 2.10 2.37 2.65
1.30 1.29 1.29 1.27 1.33 1.38 1.49 1.61 1.77 1.89 1.77 1.44 1.39 1.45 1.46 1.35 1.50 1.36 1.31 1.26 1.20 1.39 1.55 1.50 1.47 1.65 1.79 1.75 1.55 1.41 1.36 1.35 1.39 1.44 1.55 1.75 1.98 2.21
1.07 1.07 1.09 1.15 1.23 1.24 1.27 1.42 1.63 1.81 1.84 1.49 1.35 1.42 1.56 1.53 1.53 1.47 1.37 1.32 1.36 1.72 1.92 2.11 1.87 1.77 1.89 1.88 1.77 1.57 1.43 1.37 1.43 1.52 1.61 1.73 1.80 1.88
0.98 1.04 1.04 1.07 1.12 1.19 1.25 1.33 1.48 1.70 1.85 1.73 1.51 1.51 1.57 1.58 1.62 1.60 1.40 1.25 1.30 1.74 2.02 2.33 2.29 2.05 2.06 1.91 1.75 1.58 1.46 1.40 1.42 1.48 1.55 1.60 1.66 1.75
0.93 0.99 1.03 1.15 1.15 1.17 1.24 1.29 1.40 1.52 1.80 1.84 1.65 1.61 1.67 1.73 1.83 1.70 1.52 1.49 1.24 1.49 1.90 2.23 2.39 2.42 2.49 2.34 2.03 1.69 1.47 1.34 1.27 1.29 1.36 1.43 1.44 1.45
0.91 0.97 1.01 1.14 1.22 1.25 1.26 1.29 1.35 1.50 1.67 1.83 1.78 1.73 1.78 1.87 1.90 1.84 1.71 1.57 1.41 1.33 1.76 2.23 2.56 2.59 2.75 2.83 2.53 2.06 1.66 1.40 1.25 1.18 1.12 1.10 1.16 1.16
0.86 0.87 0.91 1.02 1.13 1.12 1.06 1.10 1.26 1.49 1.57 1.74 1.79 1.76 1.76 1.88 1.85 1.65 1.59 1.53 1.37 1.29 1.51 1.90 2.60 2.91 2.94 2.99 2.86 2.34 1.87 1.56 1.34 1.20 1.12 1.06 1.05 1.07
0.83 0.83 0.79 0.79 0.79 0.81 0.86 0.93 1.08 1.34 1.66 1.85 1.82 1.76 1.65 1.63 1.69 1.63 1.64 1.64 1.56 1.26 1.24 1.52 2.11 2.90 3.14 3.07 2.96 2.34 1.79 1.48 1.33 1.22 1.17 1.14 1.11 1.11
0.90 0.88 0.70 0.61 0.72 0.78 0.83 0.88 1.01 1.19 1.49 1.84 1.92 1.70 1.65 1.62 1.68 1.67 1.72 1.77 1.64 1.31 1.33 1.58 1.95 2.64 2.83 2.81 2.69 2.04 1.60 1.35 1.21 1.15 1.13 1.10 1.06 1.08
0.83 0.86 0.86 0.80 0.76 0.84 0.91 0.99 1.12 1.24 1.36 1.47 1.77 1.60 1.40 1.42 1.51 1.56 1.65 1.66 1.56 1.38 1.41 1.69 1.95 2.40 2.40 2.48 2.37 1.87 1.49 1.31 1.15 1.05 1.02 1.03 1.01 1.02
0.73 0.73 0.72 0.75 0.81 0.95 1.09 1.29 1.41 1.52 1.43 1.59 1.76 1.70 1.56 1.50 1.38 1.45 1.68 1.72 1.63 1.47 1.45 1.70 1.87 1.98 2.10 2.20 1.97 1.76 1.48 1.30 1.17 1.07 1.00 0.96 0.92 0.96
0.77 0.75 0.68 0.64 0.76 0.92 1.18 1.47 1.61 1.67 1.53 1.63 1.90 1.94 1.77 1.77 1.74 1.64 1.76 1.80 1.73 1.66 1.45 1.55 1.74 1.75 1.97 1.93 1.76 1.63 1.54 1.53 1.37 1.22 1.11 0.96 0.86 0.84
0.76 0.83 0.80 0.72 0.77 0.98 1.20 1.41 1.57 1.60 1.64 1.73 1.75 1.76 1.83 1.87 1.86 1.79 1.75 1.75 1.72 1.64 1.35 1.47 1.69 1.73 1.83 1.84 1.80 1.78 1.72 1.68 1.54 1.48 1.43 1.27 1.07 0.95
0.80 0.83 0.83 0.78 0.82 1.01 1.19 1.44 1.66 1.74 1.72 1.77 1.62 1.52 1.47 1.50 1.57 1.56 1.52 1.49 1.45 1.39 1.31 1.42 1.71 1.86 1.80 1.70 1.86 1.88 1.91 1.97 1.88 1.78 1.69 1.60 1.43 1.34
0.71 0.78 0.79 0.80 0.93 1.23 1.40 1.56 1.73 1.85 1.88 1.75 1.56 1.43 1.30 1.24 1.24 1.31 1.35 1.34 1.27 1.15 1.09 1.24 1.55 1.73 1.77 1.75 1.89 1.93 2.03 2.20 2.15 2.13 1.98 1.82 1.71 1.57
0.70 0.84 0.92 0.96 1.12 1.42 1.62 1.81 1.85 1.77 1.62 1.56 1.47 1.38 1.23 1.17 1.19 1.14 1.16 1.21 1.22 1.19 1.09 1.12 1.36 1.62 1.75 1.66 1.74 1.87 1.97 2.30 2.28 2.11 2.00 2.01 1.93 1.77
0.65 0.84 1.02 1.13 1.31 1.51 1.67 1.73 1.71 1.60 1.50 1.32 1.26 1.31 1.28 1.18 1.16 1.08 1.06 1.08 1.15 1.19 1.15 1.14 1.19 1.32 1.39 1.45 1.61 1.75 1.90 2.10 2.16 1.99 1.88 1.94 2.00 1.88
0.64 0.86 1.01 1.09 1.26 1.46 1.59 1.54 1.44 1.36 1.28 1.18 1.14 1.11 1.10 1.06 1.05 1.02 0.95 0.94 1.02 0.99 0.96 0.96 1.03 1.13 1.16 1.21 1.42 1.59 1.66 1.83 1.84 1.71 1.58 1.65 1.88 1.91
0.62 0.83 0.97 1.08 1.27 1.39 1.41 1.37 1.32 1.23 1.15 1.13 1.10 1.02 0.96 0.93 0.91 0.88 0.86 0.88 0.85 0.81 0.77 0.76 0.84 1.00 1.14 1.33 1.36 1.40 1.50 1.59 1.56 1.46 1.42 1.50 1.75 1.92
0.61 0.80 0.95 1.04 1.13 1.20 1.28 1.32 1.27 1.18 1.09 1.08 1.13 1.08 0.99 0.91 0.84 0.81 0.79 0.74 0.73 0.71 0.70 0.66 0.63 0.73 0.90 1.03 1.20 1.27 1.24 1.27 1.28 1.34 1.31 1.37 1.53 1.61
0.64 0.77 0.87 0.95 0.97 0.97 1.04 1.11 1.12 1.10 1.05 1.01 1.01 1.02 0.95 0.86 0.76 0.69 0.65 0.55 0.55 0.60 0.61 0.57 0.51 0.51 0.61 0.73 0.91 1.02 1.03 1.10 1.08 1.04 1.03 1.11 1.21 1.22
0.62 0.71 0.79 0.84 0.82 0.80 0.79 0.83 0.88 0.92 0.91 0.88 0.85 0.86 0.83 0.74 0.66 0.61 0.59 0.57 0.56 0.52 0.47 0.44 0.44 0.46 0.53 0.69 0.83 0.89 0.88 0.85 0.87 0.88 0.87 0.89 0.94 1.14
0.56 0.59 0.63 0.67 0.67 0.66 0.65 0.67 0.72 0.77 0.78 0.78 0.75 0.73 0.69 0.66 0.58 0.54 0.51 0.48 0.47 0.44 0.44 0.45 0.43 0.42 0.45 0.52 0.61 0.69 0.72 0.74 0.78 0.82 0.85 0.92 0.91 0.98

GEFSNE_prec_meanprecacc_270.txt.gz
Total_Precipitation_Accumulation
1.45 1.54 1.60 1.59 1.60 1.66 1.74 1.89 2.05 1.95 1.75 1.52 1.49 1.43 1.41 1.39 1.47 1.28 1.28 1.22 1.16 1.22 1.24 1.27 1.34 1.49 1.55 1.45 1.35 1.28 1.28 1.36 1.50 1.65 1.88 2.15 2.41 2.71
1.32 1.30 1.31 1.29 1.34 1.39 1.50 1.62 1.78 1.90 1.78 1.45 1.40 1.47 1.48 1.37 1.52 1.38 1.33 1.27 1.21 1.41 1.56 1.51 1.48 1.66 1.80 1.75 1.56 1.42 1.36 1.36 1.41 1.47 1.57 1.77 2.01 2.25
1.08 1.08 1.10 1.16 1.24 1.25 1.28 1.43 1.64 1.82 1.84 1.50 1.37 1.45 1.59 1.55 1.55 1.49 1.39 1.34 1.37 1.74 1.93 2.13 1.89 1.79 1.90 1.89 1.78 1.58 1.43 1.38 1.44 1.53 1.63 1.74 1.82 1.91
0.99 1.05 1.05 1.08 1.13 1.20 1.26 1.34 1.48 1.70 1.86 1.74 1.52 1.53 1.59 1.60 1.64 1.62 1.41 1.26 1.31 1.75 2.04 2.34 2.30 2.06 2.08 1.92 1.77 1.59 1.47 1.40 1.43 1.49 1.56 1.62 1.68 1.76
0.93 0.99 1.05 1.16 1.15 1.17 1.24 1.29 1.40 1.53 1.81 1.85 1.66 1.63 1.69 1.74 1.86 1.72 1.54 1.50 1.25 1.50 1.91 2.25 2.41 2.43 2.50 2.36 2.05 1.70 1.48 1.35 1.27 1.30 1.37 1.44 1.45 1.45
0.92 0.98 1.02 1.15 1.23 1.26 1.26 1.30 1.36 1.50 1.69 1.85 1.79 1.75 1.80 1.88 1.92 1.86 1.73 1.58 1.42 1.34 1.77 2.24 2.57 2.60 2.76 2.84 2.54 2.07 1.67 1.41 1.26 1.19 1.13 1.11 1.17 1.17
0.87 0.89 0.92 1.04 1.14 1.13 1.06 1.10 1.27 1.50 1.59 1.77 1.81 1.78 1.77 1.90 1.87 1.67 1.61 1.54 1.38 1.30 1.52 1.91 2.60 2.92 2.95 2.99 2.86 2.35 1.88 1.56 1.34 1.21 1.13 1.07 1.06 1.08
0.84 0.83 0.80 0.80 0.80 0.82 0.87 0.93 1.08 1.35 1.67 1.88 1.83 1.77 1.65 1.65 1.71 1.65 1.65 1.66 1.58 1.28 1.26 1.53 2.12 2.91 3.15 3.08 2.96 2.35 1.80 1.48 1.34 1.22 1.17 1.14 1.11 1.12
0.91 0.89 0.71 0.62 0.73 0.79 0.85 0.89 1.02 1.20 1.50 1.85 1.93 1.71 1.66 1.63 1.70 1.69 1.74 1.79 1.66 1.33 1.35 1.60 1.96 2.65 2.84 2.82 2.71 2.06 1.62 1.36 1.22 1.15 1.13 1.11 1.06 1.08
0.85 0.87 0.88 0.82 0.78 0.87 0.94 1.01 1.13 1.25 1.37 1.49 1.78 1.60 1.41 1.43 1.53 1.59 1.69 1.69 1.59 1.40 1.43 1.71 1.96 2.42 2.42 2.50 2.39 1.89 1.51 1.32 1.16 1.05 1.02 1.03 1.01 1.03
0.75 0.74 0.74 0.77 0.85 1.02 1.15 1.34 1.45 1.55 1.46 1.62 1.79 1.74 1.60 1.54 1.43 1.50 1.73 1.77 1.67 1.50 1.49 1.73 1.89 1.99 2.12 2.21 1.99 1.77 1.49 1.31 1.18 1.07 1.00 0.96 0.92 0.97
0.79 0.77 0.70 0.66 0.78 0.96 1.21 1.50 1.65 1.71 1.58 1.69 1.96 2.01 1.84 1.84 1.81 1.70 1.82 1.86 1.78 1.70 1.47 1.57 1.76 1.76 1.98 1.94 1.78 1.64 1.56 1.55 1.38 1.22 1.11 0.97 0.86 0.84
0.78 0.84 0.81 0.73 0.78 1.00 1.22 1.42 1.58 1.61 1.66 1.75 1.78 1.80 1.88 1.93 1.91 1.84 1.80 1.79 1.75 1.67 1.37 1.48 1.70 1.75 1.85 1.85 1.81 1.79 1.73 1.69 1.55 1.49 1.44 1.27 1.07 0.95
0.81 0.84 0.84 0.79 0.83 1.02 1.19 1.45 1.67 1.75 1.73 1.77 1.63 1.53 1.49 1.52 1.60 1.58 1.54 1.51 1.47 1.41 1.33 1.43 1.72 1.88 1.83 1.72 1.87 1.89 1.92 1.98 1.89 1.79 1.70 1.60 1.44 1.35
0.72 0.80 0.81 0.81 0.94 1.24 1.40 1.57 1.74 1.85 1.89 1.76 1.56 1.43 1.30 1.25 1.25 1.33 1.37 1.36 1.28 1.16 1.09 1.25 1.56 1.74 1.78 1.77 1.90 1.94 2.04 2.21 2.16 2.14 1.99 1.83 1.72 1.58
0.71 0.86 0.94 0.97 1.13 1.43 1.63 1.82 1.86 1.78 1.63 1.56 1.47 1.39 1.24 1.18 1.21 1.15 1.18 1.22 1.24 1.21 1.10 1.13 1.38 1.63 1.76 1.67 1.75 1.88 1.98 2.31 2.29 2.12 2.03 2.03 1.95 1.78
0.66 0.85 1.03 1.14 1.31 1.51 1.68 1.74 1.72 1.62 1.51 1.33 1.27 1.31 1.29 1.20 1.18 1.09 1.07 1.10 1.17 1.20 1.17 1.15 1.20 1.34 1.41 1.46 1.62 1.76 1.91 2.12 2.17 2.01 1.90 1.97 2.03 1.90
0.65 0.86 1.02 1.10 1.26 1.47 1.60 1.57 1.47 1.39 1.29 1.19 1.14 1.12 1.11 1.07 1.06 1.03 0.95 0.95 1.03 1.00 0.97 0.98 1.04 1.15 1.18 1.23 1.43 1.61 1.68 1.85 1.86 1.72 1.59 1.67 1.90 1.93
0.63 0.84 0.98 1.10 1.28 1.41 1.42 1.39 1.35 1.26 1.17 1.14 1.11 1.03 0.97 0.94 0.92 0.88 0.87 0.90 0.86 0.82 0.79 0.78 0.85 1.02 1.17 1.36 1.39 1.43 1.54 1.62 1.57 1.48 1.43 1.51 1.76 1.93
0.62 0.81 0.96 1.06 1.16 1.24 1.31 1.34 1.30 1.19 1.10 1.09 1.14 1.10 1.00 0.92 0.85 0.82 0.80 0.76 0.75 0.73 0.72 0.68 0.65 0.75 0.92 1.06 1.24 1.31 1.27 1.29 1.30 1.35 1.32 1.37 1.54 1.62
0.65 0.78 0.88 0.97 1.01 1.01 1.08 1.13 1.13 1.11 1.06 1.03 1.02 1.03 0.97 0.88 0.78 0.70 0.67 0.57 0.57 0.63 0.64 0.59 0.53 0.53 0.64 0.76 0.94 1.04 1.05 1.13 1.10 1.06 1.05 1.12 1.22 1.24
0.64 0.73 0.81 0.86 0.84 0.81 0.80 0.84 0.89 0.93 0.92 0.89 0.87 0.87 0.85 0.76 0.68 0.63 0.61 0.59 0.59 0.54 0.49 0.46 0.47 0.48 0.55 0.71 0.85 0.92 0.91 0.88 0.91 0.91 0.89 0.91 0.96 1.15
0.58 0.62 0.66 0.69 0.67 0.67 0.66 0.68 0.73 0.78 0.79 0.79 0.76 0.74 0.70 0.68 0.60 0.55 0.53 0.50 0.49 0.46 0.46 0.48 0.46 0.45 0.47 0.54 0.64 0.71 0.75 0.78 0.82 0.86 0.89 0.95 0.94 1.00

GEFSNE_prec_meanprecacc_276.txt.gz
Total_Precipitation_Accumulation
1.47 1.56 1.63 1.61 1.62 1.68 1.75 1.91 2.08 1.98 1.77 1.54 1.51 1.45 1.42 1.40 1.49 1.30 1.30 1.24 1.18 1.23 1.25 1.28 1.34 1.50 1.56 1.47 1.38 1.31 1.30 1.39 1.52 1.67 1.90 2.17 2.44 2.73
1.34 1.32 1.33 1.30 1.35 1.40 1.51 1.63 1.79 1.92 1.81 1.47 1.42 1.48 1.50 1.39 1.54 1.39 1.34 1.29 1.23 1.42 1.58 1.52 1.49 1.66 1.80 1.76 1.57 1.43 1.38 1.38 1.43 1.49 1.59 1.79 2.03 2.27
1.11 1.10 1.12 1.17 1.26 1.26 1.29 1.44 1.65 1.83 1.87 1.52 1.39 1.47 1.61 1.57 1.57 1.51 1.41 1.36 1.40 1.75 1.95 2.14 1.90 1.80 1.91 1.89 1.79 1.58 1.44 1.39 1.46 1.55 1.64 1.76 1.84 1.93
1.02 1.07 1.07 1.09 1.16 1.21 1.27 1.35 1.49 1.72 1.88 1.77 1.54 1.55 1.62 1.63 1.67 1.64 1.43 1.28 1.33 1.78 2.06 2.36 2.32 2.08 2.09 1.93 1.77 1.60 1.48 1.41 1.44 1.50 1.57 1.63 1.69 1.77
0.95 1.01 1.06 1.18 1.18 1.19 1.26 1.31 1.41 1.54 1.83 1.88 1.68 1.65 1.72 1.77 1.88 1.75 1.57 1.52 1.26 1.51 1.93 2.27 2.43 2.46 2.52 2.38 2.06 1.71 1.49 1.35 1.28 1.30 1.38 1.45 1.47 1.47
0.94 0.99 1.04 1.17 1.25 1.28 1.29 1.33 1.39 1.52 1.71 1.87 1.82 1.77 1.83 1.91 1.94 1.89 1.76 1.61 1.44 1.35 1.78 2.25 2.59 2.62 2.79 2.86 2.56 2.09 1.69 1.42 1.27 1.19 1.13 1.12 1.18 1.18
0.90 0.90 0.93 1.05 1.15 1.15 1.07 1.12 1.29 1.52 1.60 1.78 1.82 1.80 1.81 1.93 1.89 1.69 1.64 1.58 1.42 1.33 1.54 1.92 2.61 2.93 2.97 3.01 2.88 2.36 1.89 1.58 1.35 1.22 1.14 1.08 1.07 1.10
0.86 0.86 0.81 0.81 0.81 0.83 0.88 0.94 1.09 1.37 1.70 1.90 1.85 1.79 1.69 1.67 1.73 1.67 1.67 1.69 1.61 1.31 1.29 1.55 2.14 2.92 3.16 3.09 2.98 2.36 1.81 1.50 1.35 1.24 1.20 1.16 1.14 1.14
0.94 0.91 0.73 0.63 0.74 0.80 0.85 0.90 1.03 1.21 1.52 1.88 1.95 1.73 1.68 1.65 1.72 1.71 1.76 1.82 1.69 1.36 1.40 1.65 1.99 2.68 2.86 2.84 2.73 2.08 1.64 1.38 1.24 1.17 1.14 1.12 1.08 1.10
0.88 0.91 0.91 0.84 0.80 0.89 0.95 1.02 1.14 1.26 1.38 1.51 1.81 1.62 1.43 1.45 1.56 1.63 1.73 1.75 1.65 1.46 1.48 1.76 2.00 2.45 2.45 2.52 2.41 1.91 1.53 1.34 1.17 1.07 1.04 1.05 1.03 1.04
0.77 0.77 0.77 0.80 0.88 1.06 1.17 1.35 1.46 1.56 1.48 1.64 1.82 1.76 1.62 1.56 1.45 1.53 1.78 1.82 1.73 1.56 1.56 1.81 1.95 2.04 2.15 2.24 2.00 1.79 1.50 1.32 1.19 1.09 1.02 0.98 0.94 0.98
0.81 0.79 0.73 0.68 0.81 0.99 1.23 1.52 1.67 1.73 1.60 1.71 1.98 2.02 1.85 1.85 1.84 1.73 1.86 1.91 1.83 1.76 1.54 1.64 1.81 1.80 2.01 1.96 1.79 1.65 1.57 1.55 1.39 1.23 1.13 0.98 0.88 0.85
0.79 0.86 0.83 0.75 0.80 1.01 1.23 1.43 1.59 1.63 1.67 1.76 1.79 1.81 1.90 1.94 1.93 1.86 1.83 1.82 1.78 1.70 1.40 1.51 1.73 1.77 1.88 1.88 1.83 1.81 1.75 1.71 1.57 1.50 1.45 1.28 1.09 0.96
0.83 0.85 0.85 0.81 0.83 1.03 1.20 1.45 1.67 1.76 1.74 1.78 1.64 1.54 1.51 1.54 1.62 1.60 1.56 1.53 1.49 1.43 1.35 1.46 1.75 1.91 1.86 1.75 1.89 1.91 1.94 2.01 1.92 1.81 1.72 1.62 1.46 1.37
0.74 0.82 0.83 0.82 0.95 1.25 1.42 1.58 1.75 1.87 1.89 1.77 1.57 1.44 1.32 1.26 1.27 1.34 1.39 1.38 1.30 1.18 1.12 1.27 1.58 1.77 1.81 1.79 1.92 1.97 2.07 2.23 2.18 2.17 2.02 1.86 1.75 1.60
0.73 0.87 0.95 0.98 1.14 1.44 1.65 1.83 1.88 1.80 1.64 1.58 1.49 1.40 1.25 1.20 1.22 1.16 1.20 1.24 1.25 1.22 1.11 1.15 1.40 1.66 1.80 1.71 1.79 1.91 2.00 2.33 2.31 2.14 2.05 2.06 1.98 1.81
0.67 0.86 1.04 1.15 1.32 1.52 1.69 1.76 1.74 1.64 1.53 1.35 1.29 1.33 1.30 1.21 1.19 1.10 1.08 1.11 1.18 1.21 1.18 1.17 1.23 1.37 1.45 1.50 1.66 1.78 1.93 2.14 2.19 2.03 1.92 1.99 2.06 1.93
0.67 0.88 1.03 1.11 1.28 1.49 1.62 1.59 1.49 1.41 1.32 1.21 1.16 1.14 1.13 1.09 1.08 1.05 0.97 0.97 1.04 1.01 0.98 0.99 1.06 1.18 1.21 1.27 1.47 1.63 1.70 1.87 1.88 1.75 1.61 1.68 1.92 1.96
0.65 0.86 1.00 1.12 1.31 1.43 1.45 1.41 1.37 1.27 1.19 1.16 1.13 1.05 0.98 0.96 0.95 0.91 0.89 0.91 0.88 0.83 0.80 0.79 0.88 1.05 1.20 1.38 1.41 1.45 1.56 1.64 1.60 1.50 1.46 1.53 1.78 1.95
0.64 0.83 0.98 1.08 1.18 1.26 1.33 1.36 1.32 1.22 1.13 1.11 1.16 1.12 1.02 0.94 0.87 0.84 0.82 0.77 0.76 0.74 0.72 0.69 0.67 0.78 0.96 1.10 1.27 1.32 1.29 1.31 1.31 1.37 1.34 1.39 1.56 1.64
0.67 0.79 0.89 0.99 1.02 1.02 1.10 1.15 1.16 1.14 1.09 1.05 1.04 1.05 0.99 0.90 0.80 0.72 0.69 0.58 0.58 0.64 0.64 0.59 0.54 0.55 0.68 0.81 0.98 1.07 1.07 1.15 1.12 1.08 1.07 1.15 1.25 1.26
0.66 0.75 0.83 0.88 0.86 0.83 0.82 0.86 0.90 0.94 0.94 0.90 0.88 0.88 0.86 0.77 0.70 0.65 0.63 0.61 0.60 0.55 0.50 0.47 0.48 0.50 0.59 0.76 0.90 0.95 0.93 0.90 0.93 0.93 0.92 0.94 1.00 1.19
0.60 0.63 0.67 0.70 0.68 0.68 0.67 0.69 0.74 0.79 0.80 0.80 0.77 0.75 0.71 0.69 0.62 0.58 0.55 0.53 0.51 0.48 0.48 0.49 0.47 0.46 0.50 0.58 0.68 0.76 0.79 0.82 0.86 0.89 0.92 0.99 0.98 1.05

GEFSNE_prec_meanprecacc_282.txt.gz
Total_Precipitation_Accumulation
1.52 1.61 1.68 1.65 1.67 1.72 1.79 1.95 2.14 2.04 1.82 1.59 1.55 1.48 1.46 1.44 1.51 1.31 1.31 1.25 1.21 1.25 1.27 1.29 1.35 1.51 1.58 1.51 1.41 1.33 1.33 1.41 1.55 1.70 1.92 2.18 2.45 2.75
1.39 1.38 1.38 1.34 1.40 1.44 1.55 1.67 1.84 1.97 1.86 1.52 1.46 1.51 1.52 1.41 1.56 1.40 1.35 1.30 1.25 1.44 1.59 1.53 1.50 1.67 1.80 1.77 1.57 1.43 1.39 1.39 1.44 1.50 1.60 1.79 2.04 2.28
1.15 1.14 1.16 1.22 1.30 1.29 1.33 1.46 1.68 1.87 1.92 1.57 1.44 1.51 1.65 1.60 1.61 1.53 1.42 1.38 1.41 1.78 1.96 2.15 1.91 1.81 1.91 1.89 1.79 1.58 1.44 1.40 1.46 1.55 1.65 1.76 1.85 1.94
1.05 1.10 1.10 1.14 1.20 1.25 1.31 1.37 1.52 1.76 1.93 1.83 1.60 1.61 1.67 1.66 1.71 1.67 1.44 1.29 1.35 1.80 2.08 2.38 2.33 2.09 2.09 1.93 1.78 1.60 1.48 1.41 1.44 1.50 1.57 1.63 1.70 1.77
0.99 1.04 1.10 1.23 1.23 1.24 1.31 1.34 1.45 1.59 1.88 1.94 1.74 1.71 1.77 1.80 1.92 1.78 1.59 1.55 1.28 1.53 1.95 2.28 2.44 2.47 2.53 2.38 2.07 1.71 1.49 1.35 1.28 1.31 1.38 1.45 1.47 1.47
0.98 1.03 1.09 1.22 1.29 1.34 1.34 1.38 1.43 1.57 1.76 1.93 1.87 1.83 1.91 1.96 2.00 1.94 1.79 1.64 1.46 1.37 1.80 2.27 2.60 2.63 2.79 2.87 2.56 2.09 1.69 1.42 1.27 1.19 1.13 1.12 1.18 1.19
0.95 0.95 0.98 1.10 1.20 1.19 1.11 1.16 1.33 1.57 1.65 1.84 1.87 1.86 1.90 2.00 1.95 1.74 1.67 1.61 1.45 1.35 1.56 1.94 2.63 2.94 2.98 3.02 2.88 2.37 1.89 1.58 1.36 1.22 1.15 1.08 1.07 1.10
0.92 0.91 0.85 0.84 0.83 0.85 0.90 0.96 1.11 1.40 1.74 1.94 1.90 1.84 1.75 1.73 1.78 1.72 1.72 1.72 1.65 1.35 1.32 1.58 2.15 2.94 3.18 3.12 3.00 2.38 1.82 1.51 1.36 1.25 1.20 1.16 1.14 1.14
0.99 0.97 0.76 0.65 0.75 0.82 0.87 0.92 1.04 1.23 1.55 1.91 1.99 1.76 1.72 1.69 1.77 1.75 1.81 1.86 1.73 1.40 1.45 1.68 2.02 2.70 2.87 2.85 2.74 2.09 1.65 1.39 1.25 1.18 1.15 1.13 1.09 1.11
0.92 0.95 0.95 0.87 0.82 0.91 0.97 1.04 1.15 1.28 1.40 1.52 1.84 1.65 1.45 1.48 1.60 1.66 1.77 1.80 1.70 1.50 1.54 1.81 2.04 2.48 2.46 2.54 2.42 1.92 1.54 1.35 1.18 1.08 1.05 1.06 1.03 1.05
0.81 0.81 0.81 0.83 0.91 1.08 1.19 1.38 1.48 1.58 1.50 1.65 1.83 1.77 1.63 1.58 1.47 1.57 1.83 1.87 1.78 1.62 1.62 1.86 1.99 2.08 2.19 2.27 2.02 1.80 1.51 1.34 1.20 1.10 1.03 0.98 0.94 0.98
0.85 0.83 0.76 0.71 0.83 1.01 1.25 1.56 1.70 1.76 1.62 1.73 2.00 2.04 1.87 1.87 1.85 1.76 1.91 1.96 1.89 1.82 1.60 1.69 1.86 1.85 2.05 1.99 1.81 1.68 1.59 1.57 1.40 1.24 1.14 0.99 0.88 0.86
0.83 0.89 0.85 0.78 0.83 1.04 1.25 1.45 1.62 1.66 1.70 1.79 1.82 1.84 1.94 1.98 1.96 1.90 1.87 1.86 1.83 1.75 1.45 1.56 1.78 1.83 1.93 1.92 1.87 1.85 1.79 1.75 1.60 1.52 1.46 1.29 1.10 0.97
0.86 0.88 0.88 0.83 0.88 1.07 1.22 1.47 1.69 1.77 1.75 1.80 1.68 1.58 1.56 1.59 1.66 1.65 1.61 1.57 1.54 1.48 1.41 1.52 1.80 1.96 1.91 1.80 1.94 1.95 1.98 2.05 1.96 1.84 1.75 1.64 1.47 1.38
0.76 0.84 0.85 0.85 0.98 1.27 1.43 1.60 1.76 1.88 1.91 1.79 1.60 1.48 1.36 1.32 1.32 1.39 1.44 1.42 1.34 1.22 1.16 1.31 1.63 1.81 1.86 1.83 1.97 2.02 2.11 2.28 2.22 2.21 2.07 1.90 1.77 1.62
0.74 0.88 0.96 1.00 1.15 1.45 1.66 1.84 1.90 1.82 1.67 1.60 1.52 1.43 1.30 1.24 1.27 1.21 1.24 1.27 1.29 1.26 1.14 1.18 1.43 1.71 1.84 1.76 1.84 1.96 2.06 2.38 2.34 2.18 2.09 2.10 2.01 1.84
0.68 0.87 1.05 1.16 1.33 1.53 1.71 1.78 1.77 1.66 1.55 1.38 1.32 1.38 1.35 1.26 1.24 1.15 1.13 1.15 1.21 1.24 1.21 1.20 1.26 1.40 1.49 1.56 1.72 1.83 1.98 2.18 2.23 2.06 1.96 2.03 2.09 1.96
0.68 0.89 1.04 1.13 1.30 1.51 1.65 1.62 1.53 1.44 1.34 1.24 1.20 1.17 1.17 1.12 1.12 1.08 1.01 1.00 1.07 1.04 1.01 1.01 1.10 1.22 1.26 1.31 1.51 1.68 1.76 1.92 1.92 1.78 1.65 1.72 1.96 2.00
0.66 0.87 1.01 1.13 1.32 1.45 1.47 1.43 1.39 1.29 1.21 1.18 1.15 1.07 1.01 0.99 0.97 0.93 0.91 0.94 0.91 0.86 0.81 0.81 0.90 1.09 1.24 1.42 1.44 1.47 1.59 1.68 1.63 1.53 1.48 1.55 1.80 1.98
0.65 0.85 0.99 1.09 1.19 1.27 1.34 1.37 1.33 1.23 1.14 1.13 1.18 1.14 1.04 0.96 0.89 0.86 0.84 0.79 0.79 0.77 0.74 0.70 0.68 0.80 0.98 1.13 1.29 1.35 1.31 1.33 1.34 1.39 1.36 1.41 1.58 1.66
0.68 0.81 0.91 1.01 1.04 1.04 1.12 1.17 1.17 1.16 1.11 1.07 1.06 1.07 1.01 0.92 0.82 0.74 0.71 0.61 0.61 0.66 0.66 0.60 0.55 0.56 0.70 0.84 1.01 1.09 1.10 1.17 1.15 1.11 1.09 1.17 1.27 1.28
0.67 0.76 0.84 0.89 0.88 0.86 0.86 0.89 0.93 0.97 0.96 0.92 0.89 0.90 0.87 0.80 0.73 0.68 0.66 0.63 0.62 0.57 0.52 0.49 0.50 0.52 0.61 0.78 0.91 0.98 0.96 0.92 0.95 0.95 0.94 0.96 1.02 1.21
0.60 0.64 0.68 0.71 0.70 0.70 0.69 0.71 0.76 0.80 0.82 0.81 0.79 0.76 0.73 0.71 0.65 0.61 0.59 0.55 0.53 0.49 0.49 0.51 0.50 0.48 0.52 0.60 0.71 0.79 0.83 0.85 0.88 0.91 0.94 1.01 1.00 1.06